Overview Statistics Trail Chart Weather Telemetry Raw packets
 

This is the latest recevied weather packets stored in our database for station/object VU2EXP-13. If no packets are shown the sender has not sent any weather packets the latest 10 day(s).

<< 10 11 12 13 14 15 16 >>
Time Temp. Humidity Pressure Rain* Wind** Luminosity Snow
1788066916 31.11° C 57% 992.4 hPa - - - -
1788066016 31.11° C 56% 992.3 hPa - - - -
1788065116 30.56° C 59% 992.3 hPa - - - -
1788064219 30° C 61% 992.3 hPa - - - -
1788063316 30° C 63% 992.2 hPa - - - -
1788062415 29.44° C 63% 992 hPa - - - -
1788061515 29.44° C 64% 991.8 hPa - - - -
1788060616 29.44° C 64% 991.7 hPa - - - -
1788059715 29.44° C 64% 991.5 hPa - - - -
1788058815 28.89° C 64% 991.5 hPa - - - -
1788057915 28.89° C 65% 991.5 hPa - - - -
1788057015 28.89° C 66% 991.3 hPa - - - -
1788056115 28.89° C 67% 991.2 hPa - - - -
1788055214 28.33° C 68% 990.9 hPa - - - -
1788054315 28.33° C 69% 990.6 hPa - - - -
1788053418 28.33° C 70% 990.4 hPa - - - -
1788052514 28.33° C 70% 990.2 hPa - - - -
1788051614 28.33° C 70% 990.2 hPa - - - -
1788050714 28.33° C 69% 990.1 hPa - - - -
1788049814 28.33° C 67% 990.2 hPa - - - -
1788048914 28.89° C 66% 990.2 hPa - - - -
1788048013 28.89° C 65% 990.1 hPa - - - -
1788047114 28.89° C 65% 989.9 hPa - - - -
1788046214 28.89° C 65% 990 hPa - - - -
1788045313 28.89° C 66% 989.9 hPa - - - -

* Rain since midnight (hover to see other rain measurements)
** Current wind speed in m/s (hover to see current wind gust speed)